This demonstration page uses our WeatherBlox Daily Observations layout. Learn more.

Left ArrowRight Arrow

Hourly Observations for October 14, 2021

Temp ( °F °C ) Dew Point ( °F °C ) Humidity (%) Winds ( mph kmh ) Pressure ( in mb ) Visibility ( mi km ) Precip ( " mm )
12:15 am 00:15 Clear 44 6.9 31 -0.3 60 60 W 6 9 29.92 1013 10 16 0.00 0.00
12:35 am 00:35 Clear 43 6.1 32 -0.2 64 64 W 7 11 29.93 1013 10 16 0.00 0.00
12:55 am 00:55 Clear 44 6.6 31 -0.5 61 61 W 6 9 29.92 1013 10 16 0.00 0.00
1:15 am 01:15 Clear 43 6.3 31 -0.6 62 62 WNW 6 9 29.93 1013 10 16 0.00 0.00
1:35 am 01:35 Clear 43 6.2 31 -0.7 62 62 WNW 5 7 29.93 1013 10 16 0.00 0.00
1:55 am 01:55 Clear 42 5.5 31 -0.6 65 65 WNW 3 6 29.94 1014 10 16 0.00 0.00
2:15 am 02:15 Clear 41 5 31 -0.5 68 68 WNW 5 7 29.95 1014 10 16 0.00 0.00
2:35 am 02:35 Clear 40 4.7 31 -0.6 69 69 Calm 29.95 1014 10 16 0.00 0.00
2:55 am 02:55 Clear 41 4.8 31 -0.5 69 69 Calm 29.96 1015 10 16 0.00 0.00
3:15 am 03:15 Clear 38 3.5 32 -0.1 78 78 Calm 29.97 1015 10 16 0.00 0.00
3:35 am 03:35 Clear 37 2.6 32 0 83 83 Calm 29.98 1015 10 16 0.00 0.00
3:55 am 03:55 Clear 37 2.8 32 0.1 83 83 Calm 29.99 1016 10 16 0.00 0.00
4:15 am 04:15 Clear 37 2.6 31 -0.4 81 81 WSW 3 6 30.00 1016 10 16 0.00 0.00
4:35 am 04:35 Clear 36 2.3 32 -0.1 84 84 WSW 3 6 30.00 1016 10 16 0.00 0.00
4:55 am 04:55 Clear 37 2.7 31 -0.3 81 81 W 3 6 30.00 1016 10 16 0.00 0.00
5:15 am 05:15 Clear 38 3.1 31 -0.3 79 79 Calm 30.01 1016 10 16 0.00 0.00
5:35 am 05:35 Clear 36 2.3 31 -0.5 82 82 W 3 6 30.01 1016 10 16 0.00 0.00
5:55 am 05:55 Clear 37 2.6 31 -0.6 80 80 W 5 7 30.01 1016 10 16 0.00 0.00
6:15 am 06:15 Clear 37 2.5 31 -0.6 80 80 W 6 9 30.01 1016 10 16 0.00 0.00
6:35 am 06:35 Clear 35 1.7 31 -0.7 84 84 W 5 7 30.02 1017 10 16 0.00 0.00
6:55 am 06:55 Clear 34 1 31 -0.7 89 89 WNW 5 7 30.04 1017 10 16 0.00 0.00
7:15 am 07:15 Clear 34 1.2 31 -0.5 89 89 W 6 9 30.04 1017 10 16 0.00 0.00
7:35 am 07:35 Clear 36 2.3 31 -0.6 81 81 W 6 9 30.04 1017 10 16 0.00 0.00
7:55 am 07:55 Sunny 36 2 31 -0.5 84 84 W 5 7 30.05 1017 10 16 0.00 0.00
8:15 am 08:15 Sunny 37 2.5 31 -0.5 81 81 WNW 6 9 30.05 1018 10 16 0.00 0.00
8:35 am 08:35 Sunny 36 2 32 -0.2 86 86 NW 7 11 30.06 1018 10 16 0.00 0.00
8:55 am 08:55 Sunny 37 3 32 0 81 81 NW 5 7 30.04 1017 10 16 0.00 0.00
9:15 am 09:15 Sunny 41 4.8 33 0.8 76 76 NNW 6 9 30.03 1017 10 16 0.00 0.00
9:35 am 09:35 Sunny 43 6.2 34 1 70 70 NNW 6 9 30.02 1016 10 16 0.00 0.00
9:55 am 09:55 Partly Cloudy 44 6.5 32 0.2 64 64 NNW 9 15 30.02 1017 10 16 0.00 0.00
10:15 am 10:15 Partly Cloudy 45 7 33 0.8 65 65 NNW 6 9 30.02 1017 10 16 0.00 0.00
10:35 am 10:35 Cloudy 46 7.6 33 0.5 61 61 NNW 6 9 30.02 1017 10 16 0.00 0.00
10:55 am 10:55 Cloudy 47 8.2 34 1 61 61 N 6 9 30.02 1017 10 16 0.00 0.00
11:15 am 11:15 Cloudy 47 8.3 34 1 60 60 NNW 5 7 30.02 1017 10 16 0.00 0.00
11:35 am 11:35 Cloudy 48 8.8 34 1.2 59 59 NNW 6 9 30.01 1016 10 16 0.00 0.00
11:55 am 11:55 Cloudy 49 9.4 35 1.4 58 58 N 6 9 30.01 1016 10 16 0.00 0.00
12:15 pm 12:15 Cloudy 49 9.7 34 1 55 55 N 6 9 30.01 1016 10 16 0.00 0.00
12:35 pm 12:35 Cloudy 49 9.7 34 1.1 55 55 Calm 30.01 1016 10 16 0.00 0.00
12:55 pm 12:55 Cloudy 50 10.1 34 1.3 55 55 NNW 5 7 30.00 1016 10 16 0.00 0.00
1:15 pm 13:15 Cloudy 51 10.5 35 1.6 54 54 Calm 29.99 1016 10 16 0.00 0.00
1:35 pm 13:35 Cloudy 52 10.9 35 1.5 53 53 NNW 5 7 29.97 1015 10 16 0.00 0.00
1:55 pm 13:55 Cloudy 52 11.1 35 1.4 52 52 N 7 11 29.97 1015 10 16 0.00 0.00
2:15 pm 14:15 Cloudy 52 11.2 34 0.9 49 49 N 5 7 29.96 1015 10 16 0.00 0.00
2:35 pm 14:35 Cloudy 52 11.1 33 0.4 48 48 N 3 6 29.95 1014 10 16 0.00 0.00
2:55 pm 14:55 Cloudy 52 11.3 33 0.8 49 49 N 6 9 29.94 1014 10 16 0.00 0.00
3:15 pm 15:15 Cloudy 52 11.1 33 0.6 49 49 N 7 11 29.94 1014 10 16 0.00 0.00
3:35 pm 15:35 Cloudy 51 10.7 34 0.9 51 51 NNW 7 11 29.94 1014 10 16 0.00 0.00
3:55 pm 15:55 Cloudy 51 10.5 33 0.8 51 51 N 7 11 29.95 1014 10 16 0.00 0.00
4:15 pm 16:15 Cloudy 51 10.3 34 1.1 53 53 NNW 9 15 29.96 1015 10 16 0.00 0.00
4:35 pm 16:35 Cloudy 50 10 36 2.4 60 60 NNW 7 11 29.97 1015 10 16 0.00 0.00
4:55 pm 16:55 Cloudy 50 10.1 36 2.3 59 59 NNW 9 15 29.96 1015 10 16 0.00 0.00
5:15 pm 17:15 Cloudy 50 10.2 35 1.9 57 57 NNW 6 9 29.97 1015 10 16 0.00 0.00
5:35 pm 17:35 Cloudy 51 10.3 36 2.1 57 57 NNW 5 7 29.97 1015 10 16 0.00 0.00
5:55 pm 17:55 Mostly Cloudy 51 10.5 35 1.9 56 56 NNW 6 9 29.98 1015 10 16 0.00 0.00
6:15 pm 18:15 Mostly Cloudy 51 10.6 34 1.3 53 53 NW 3 6 29.99 1015 10 16 0.00 0.00
6:35 pm 18:35 Cloudy 51 10.4 35 1.7 55 55 NNW 9 15 30.00 1016 10 16 0.00 0.00
6:55 pm 18:55 Cloudy 49 9.7 36 2.2 60 60 NNW 12 19 30.02 1016 10 16 0.00 0.00
7:15 pm 19:15 Cloudy 48 8.9 38 3.1 67 67 NNW 8 13 30.03 1017 10 16 0.00 0.00
7:35 pm 19:35 Cloudy 46 8 38 3.5 74 74 NNW 14 22 30.03 1017 10 16 0.00 0.00
7:55 pm 19:55 Cloudy with Light Rain 45 7.2 40 4.4 83 83 N 5 7 30.05 1018 10 16 0.00 0.00
8:15 pm 20:15 Cloudy 45 7.2 40 4.6 84 84 NNE 8 13 30.05 1018 10 16 0.00 0.00
8:35 pm 20:35 Cloudy 45 7 40 4.5 84 84 NE 8 13 30.05 1018 10 16 0.00 0.00
8:55 pm 20:55 Cloudy 44 6.9 40 4.7 86 86 NNE 8 13 30.05 1018 10 16 0.00 0.00
9:15 pm 21:15 Cloudy 44 6.9 40 4.7 86 86 N 5 7 30.05 1018 10 16 0.00 0.00
9:35 pm 21:35 Cloudy 44 6.6 40 4.6 87 87 NW 3 6 30.05 1018 10 16 0.00 0.00
9:55 pm 21:55 Mostly Cloudy 44 6.5 40 4.7 88 88 Calm 30.05 1018 10 16 0.00 0.00
10:15 pm 22:15 Mostly Cloudy 44 6.8 41 5 88 88 S 6 9 30.06 1018 10 16 0.00 0.00
10:35 pm 22:35 Mostly Cloudy 44 6.5 41 5 90 90 Calm 30.07 1018 10 16 0.00 0.00
10:55 pm 22:55 Partly Cloudy 44 6.5 41 5.1 91 91 W 6 9 30.08 1019 10 16 0.00 0.00
11:15 pm 23:15 Partly Cloudy 43 6.2 41 5 92 92 Calm 30.10 1019 10 16 0.00 0.00
11:35 pm 23:35 Clear 43 6.1 41 4.8 91 91 WSW 3 6 30.10 1019 10 16 0.00 0.00
11:55 pm 23:55 Clear 42 5.5 40 4.5 93 93 W 5 7 30.10 1019 10 16 0.00 0.00

Powered by AerisWeather